Swansboro, NC

12:39 AM EDT on July 21, 2017 (GMT -0400)
Bogue McAlf

Weather History for KNJM - June, 2013

Change the Weather History Date:

Thursday, June 27, 2013

  Actual Average (KNKT) Record (KNKT)
Temperature  
Mean Temperature 78 °F -  
Max Temperature 84 °F 85 °F 100 °F (1998)
Min Temperature 73 °F 67 °F 44 °F (2002)
Cooling Degree Days 14    
Growing Degree Days 28 (Base 50)    
Moisture  
Dew Point 73 °F    
Average Humidity 80    
Maximum Humidity 88    
Minimum Humidity 72    
Precipitation  
Precipitation 0.00 in - - ()
Sea Level Pressure  
Sea Level Pressure 29.89 in    
Wind  
Wind Speed 12 mph (SW)    
Max Wind Speed 22 mph    
Max Gust Speed 29 mph    
Visibility 9 miles    
Events Rain    
Averages and records for this station are not official NWS values.
T = Trace of Precipitation, MM = Missing Value Source: NWS Daily Summary

Daily Weather History Graph

Daily Weather History Graph

Search for Another Location

Airport or City:

Trip Planner

Search our weather history database for the weather conditions in past years. The results will help you decide how hot, cold, wet, or windy it might be!

Date:

Astronomy

Jun. 27, 2013 Rise Set
Actual Time 5:57 AM EDT 8:25 PM EDT
Civil Twilight 5:27 AM EDT 8:54 PM EDT
Nautical Twilight 4:51 AM EDT 9:31 PM EDT
Astronomical Twilight 4:11 AM EDT 10:11 PM EDT
Moon 11:35 PM EDT (6/27) 10:43 AM EDT (6/27)
Length of Visible Light 15h 27m
Length of Day
14h 28m
Waning Gibbous, 76% of the Moon is Illuminated
Jun 27
Waning Gibbous
Jun 30
Last Quarter
Jul 8
New
Jul 15
First Quarter
Jul 22
Full

Hourly Weather History & Observations

Time (EDT) Temp. Heat Index Dew Point Humidity Pressure Visibility Wind Dir Wind Speed Gust Speed Precip Events Conditions
12:57 AM 79.0 °F - 73.9 °F 84% 29.93 in 10.0 mi SSW 13.8 mph 23.0 mph N/A   Mostly Cloudy
1:18 AM 78.8 °F - 69.8 °F 74% 29.91 in 10.0 mi SW 11.5 mph 21.9 mph N/A   Scattered Clouds
1:57 AM 75.9 °F - 68.0 °F 76% 29.91 in 10.0 mi WSW 9.2 mph 17.3 mph N/A   Clear
2:57 AM 73.9 °F - 66.0 °F 76% 29.96 in 10.0 mi WSW 8.1 mph - N/A   Clear
3:57 AM 73.9 °F - 66.0 °F 76% 29.96 in 10.0 mi WSW 5.8 mph - N/A   Overcast
4:57 AM 73.9 °F - 68.0 °F 82% 29.95 in 10.0 mi WSW 4.6 mph - N/A   Overcast
5:22 AM 75.2 °F - 69.8 °F 83% 29.94 in 10.0 mi WSW 9.2 mph - N/A   Overcast
5:29 AM 77.0 °F - 71.6 °F 83% 29.94 in 10.0 mi SW 10.4 mph 18.4 mph N/A   Overcast
5:57 AM 77.0 °F - 71.1 °F 82% 29.95 in 10.0 mi SW 12.7 mph 18.4 mph N/A   Overcast
6:12 AM 77.0 °F - 71.6 °F 83% 29.94 in 10.0 mi SW 12.7 mph - N/A   Overcast
6:53 AM 78.8 °F - 73.4 °F 83% 29.94 in 10.0 mi SW 9.2 mph - N/A   Overcast
6:57 AM 78.1 °F - 73.0 °F 84% 29.95 in 10.0 mi SW 12.7 mph - N/A   Overcast
7:57 AM 79.0 °F - 72.0 °F 79% 29.95 in 10.0 mi SW 10.4 mph 19.6 mph N/A   Mostly Cloudy
8:22 AM 80.6 °F 85.4 °F 73.4 °F 79% 29.93 in 10.0 mi SW 12.7 mph 20.7 mph N/A   Scattered Clouds
8:42 AM 80.6 °F 85.4 °F 73.4 °F 79% 29.92 in 9.0 mi SW 13.8 mph - N/A   Mostly Cloudy
8:57 AM 81.0 °F 86.7 °F 75.0 °F 82% 29.94 in 9.0 mi WSW 10.4 mph - N/A   Mostly Cloudy
9:57 AM 81.0 °F 86.7 °F 75.0 °F 82% 29.94 in 10.0 mi SW 19.6 mph 24.2 mph N/A   Mostly Cloudy
10:46 AM 82.4 °F 89.5 °F 75.2 °F 79% 29.91 in 10.0 mi SW 13.8 mph 23.0 mph N/A   Scattered Clouds
10:57 AM 82.9 °F 90.8 °F 75.9 °F 79% 29.92 in 10.0 mi SSW 11.5 mph 20.7 mph N/A   Scattered Clouds
11:57 AM 82.9 °F 90.2 °F 75.0 °F 77% 29.93 in 10.0 mi SW 19.6 mph 26.5 mph N/A   Partly Cloudy
12:57 PM 82.9 °F 88.8 °F 73.0 °F 72% 29.91 in 10.0 mi SW 16.1 mph 23.0 mph N/A   Clear
1:57 PM 82.9 °F 88.8 °F 73.0 °F 72% 29.88 in 8.0 mi SW 15.0 mph 25.3 mph N/A   Clear
3:57 PM 84.0 °F 91.9 °F 75.0 °F 74% 29.84 in 10.0 mi SSW 21.9 mph 26.5 mph N/A   Clear
4:55 PM 82.4 °F 88.2 °F 73.4 °F 74% 29.85 in 10.0 mi SSW 15.0 mph 27.6 mph N/A   Mostly Cloudy
4:57 PM 82.0 °F 87.9 °F 73.9 °F 76% 29.86 in 10.0 mi SSW 18.4 mph 27.6 mph N/A   Mostly Cloudy
5:46 PM 80.6 °F 86.2 °F 75.2 °F 84% 29.83 in 8.0 mi SW 12.7 mph 23.0 mph N/A   Overcast
5:57 PM 80.1 °F 85.1 °F 75.0 °F 85% 29.84 in 6.0 mi SSW 12.7 mph 21.9 mph 0.00 in Rain Light Rain
6:05 PM 80.6 °F 86.2 °F 75.2 °F 84% 29.82 in 5.0 mi SSW 16.1 mph 21.9 mph 0.00 in Rain Light Rain
6:57 PM 80.1 °F 85.4 °F 75.9 °F 87% 29.83 in 7.0 mi SW 12.7 mph 21.9 mph 0.00 in   Overcast
7:21 PM 80.6 °F 86.2 °F 75.2 °F 84% 29.81 in 7.0 mi SW 15.0 mph 25.3 mph N/A   Mostly Cloudy
7:57 PM 80.1 °F 85.1 °F 75.0 °F 85% 29.84 in 7.0 mi SSW 15.0 mph 24.2 mph N/A   Mostly Cloudy
8:57 PM 79.0 °F - 75.0 °F 88% 29.83 in 9.0 mi SW 16.1 mph 26.5 mph N/A   Scattered Clouds
9:57 PM 79.0 °F - 70.0 °F 74% 29.84 in 10.0 mi SW 10.4 mph - 0.00 in   Overcast
10:26 PM 78.8 °F - 71.6 °F 78% 29.83 in 10.0 mi SW 12.7 mph - N/A   Mostly Cloudy
10:57 PM 80.1 °F 85.1 °F 75.0 °F 85% 29.82 in 9.0 mi SSW 16.1 mph 24.2 mph N/A   Overcast
11:20 PM 78.8 °F - 69.8 °F 74% 29.82 in 10.0 mi SW 17.3 mph 28.8 mph N/A   Scattered Clouds
11:57 PM 79.0 °F - 71.1 °F 77% 29.84 in 10.0 mi SW 15.0 mph 23.0 mph N/A   Mostly Cloudy